Retour au catalogue

STARLINK-32367

ActifCommunicationsVLEO
NORAD 60919·PAYLOAD·🇺🇸 United States

Lancé Aug 31, 2024 depuis Cape Canaveral Space Force Station

Loading…

Prochains Passages (prochaines 24 heures)

TLE

FraisSource: CelesTrak SupGP

Époque: Sep 14, 2026, 21:13 UTC

1 60919C 24154S   26257.88451389 -.00068869  00000+0 -20349-2 0  2574
2 60919  53.1583 123.6450 0001232  85.8847 195.2115 15.34423192    10

Suivez STARLINK-32367 en temps réel avec AllMySat

Download on the App Store